Regional Weather Roundup
Issued by NWS

Home | Current Version | Previous Version | Text Only | Print | Product List | Glossary Off
Versions: 1 2 3 4 5 6 7 8 9 10 11 12 13 14 15 16 17 18 19 20 21 22 23 24 25 26 27 28 29 30 31 32 33 34 35 36 37 38 39 40 41 42 43 44 45 46 47 48 49 50

072
ASUS45 KBOI 212110
RWRID

IDAHO REGIONAL WEATHER ROUNDUP
NATIONAL WEATHER SERVICE BOISE ID
300 PM MDT MON AUG 21 2017

NOTE: "FAIR" INDICATES FEW OR NO CLOUDS BELOW 12000 FEET
WITH NO SIGNIFICANT WEATHER AND/OR OBSTRUCTIONS TO VISIBILITY

IDZ012-014-212200-
SOUTHWEST IDAHO


CITY           SKY/WX    TMP DP  RH WIND       PRES   REMARKS
BOISE          SUNNY     83  39  21 NW8       30.10F
CALDWELL       SUNNY     84  44  24 VRB6      30.09F
MOUNTAIN HOME  MOSUNNY   86  36  16 NW14      30.09F
$$

IDZ016-017-212200-
SOUTHCENTRAL IDAHO


CITY           SKY/WX    TMP DP  RH WIND       PRES   REMARKS
BURLEY         SUNNY     79  39  23 NW8       30.16F
JEROME         SUNNY     78  44  29 SW8       30.17F
TWIN FALLS     SUNNY     81  36  19 W10       30.17F
$$

IDZ019>023-212200-
SOUTHEAST IDAHO


CITY           SKY/WX    TMP DP  RH WIND       PRES   REMARKS
IDAHO FALLS    SUNNY     79  36  21 SW6       30.19F
POCATELLO      SUNNY     81  33  17 W10       30.19F
REXBURG        SUNNY     77  37  23 W8        30.20F
$$

IDZ006-010-011-018-031-032-212200-
CENTRAL IDAHO MOUNTAINS


CITY           SKY/WX    TMP DP  RH WIND       PRES   REMARKS
MCCALL         SUNNY     78  30  17 S3        30.20F
HAILEY         SUNNY     75  43  31 SE9       30.23F
STANLEY          N/A     79  28  15 NE7       30.28F
SALMON         SUNNY     78  34  20 NW5       30.16F
CHALLIS        PTSUNNY   78  32  18 CALM      30.19F
$$

IDZ002-004-006-007-026-212200-
NORTHERN IDAHO


CITY           SKY/WX    TMP DP  RH WIND       PRES   REMARKS
LEWISTON       SUNNY     85  44  23 NW6       30.08F
LOWELL           N/A     85  44  23 CALM      30.07F
COEUR D`ALENE  SUNNY     82  45  27 VRB3      30.15F
MULLAN PASS    SUNNY     71  37  28 MISG      30.31F
$$




USA.gov is the U.S. government's official web portal to all federal, state and local government web resources and services.